Regional Weather Roundup
Issued by NWS

Home | Current Version | Previous Version | Graphics & Text | Print | Product List | Glossary On
Versions: 1 2 3 4 5 6 7 8 9 10 11 12 13 14 15 16 17 18 19 20 21 22 23 24 25 26 27 28 29 30 31 32 33 34 35 36 37 38 39 40 41 42 43 44 45 46 47 48 49 50
000
ASUS43 KFSD 240002
RWRSD

WEATHER ROUNDUP FOR SOUTH DAKOTA
NATIONAL WEATHER SERVICE SIOUX FALLS SD
600 PM CST TUE JAN 23 2018

NOTE: "FAIR" INDICATES FEW OR NO CLOUDS BELOW 12,000 FEET WITH NO
SIGNIFICANT WEATHER AND/OR OBSTRUCTIONS TO VISIBILITY.


SDZ001>005-009-010-012>017-240100-
NORTHWEST AND NORTH CENTRAL SOUTH DAKOTA

CITY           SKY/WX    TMP DP  RH WIND       PRES   REMARKS
BUFFALO          N/A     28  21  75 W12       30.09R WCI  18
FAITH            N/A     33  24  69 W10       30.15R WCI  25
MOBRIDGE       CLEAR     32  23  69 NW8       30.11R WCI  25
$$

SDZ012>016-024>037-041>051-057-063-072>074-240100-
SOUTHWEST AND SOUTH CENTRAL SOUTH DAKOTA

CITY           SKY/WX    TMP DP  RH WIND       PRES   REMARKS
RAPID CTY ARPT CLEAR     30  19  63 NE8       30.17R WCI  22
PIERRE         CLEAR     31  23  72 NW7       30.14R WCI  24
CUSTER         CLEAR     25   9  50 W7        30.13R WCI  17
ELLSWORTH AFB  CLEAR     35  20  56 N8        30.17R WCI  28
PHILIP         CLEAR     34  26  72 W8        30.18R WCI  27
PINE RIDGE     PTCLDY    27  20  75 W6        30.21R WCI  20
SPEARFISH        N/A     32  18  55 W8        30.16S WCI  25
WINNER         FAIR      35  26  69 W14       30.15R WCI  26
$$

SDZ004>011-016>023-039-040-240100-
NORTHEAST SOUTH DAKOTA

CITY           SKY/WX    TMP DP  RH WIND       PRES   REMARKS
ABERDEEN       PTCLDY    27  21  78 NW7       30.13R WCI  19
WATERTOWN      CLOUDY    22  21  96 NW5       30.10R WCI  16
BROOKINGS      CLOUDY    23  21  92 NW10      30.13R WCI  12
SISSETON         N/A     25  21  85 NW3       30.12S
$$

SDZ017-020-022-023-036>040-048>070-240100-
SOUTHEAST SOUTH DAKOTA

CITY           SKY/WX    TMP DP  RH WIND       PRES   REMARKS
SIOUX FALLS    CLOUDY    25  23  92 W6        30.15R WCI  18
HURON          MOCLDY    25  23  92 S3        30.14R
CHAMBERLAIN    PTCLDY    32  28  85 W7        30.14S WCI  26
MITCHELL       MOCLDY    30  25  81 CALM      30.15S
YANKTON        PTCLDY    24  20  84 CALM      30.17R
$$

ABBREVIATIONS USED IN REMARKS
   TC - TEMPERATURE IN CELSIUS
  WCI - WIND CHILL INDEX
   HX - HEAT INDEX
  VSB - VISIBILITY





USA.gov is the U.S. government's official web portal to all federal, state and local government web resources and services.